Weather History for Indianapolis, IN

Change the Weather History Date:

Friday, February 8, 2013

  Actual Average (KEYE) Record (KEYE)
Temperature  
Mean Temperature 34 °F 30 °F  
Max Temperature 38 °F 38 °F 60 °F (2001)
Min Temperature 31 °F 22 °F 0 °F (2007)
Degree Days  
Heating Degree Days 30 35  
Month to date heating degree days 284  
Since 1 July heating degree days 3485  
Cooling Degree Days 0 0  
Month to date cooling degree days 0  
Year to date cooling degree days 0  
Moisture  
Dew Point 28 °F    
Average Humidity 81    
Maximum Humidity 90    
Minimum Humidity 68    
Precipitation  
Precipitation 0.00 in 0.07 in 0.10 in (2001)
Month to date precipitation 0.52  
Year to date precipitation 2.73  
Sea Level Pressure  
Sea Level Pressure 30.13 in    
Wind  
Wind Speed 12 mph (NW)    
Max Wind Speed 18 mph    
Max Gust Speed 26 mph    
Visibility 9 miles    
Events      
T = Trace of Precipitation, MM = Missing Value Source: NWS Daily Summary

Daily Weather History Graph

Daily Weather History Graph

Search for Another Location

Airport:

Trip Planner

Search our weather history database for the weather conditions in past years. The results will help you decide how hot, cold, wet, or windy it might be!

Date:

Astronomy

Feb. 08, 2013 Rise Set
Actual Time 7:46 AM EST 6:12 PM EST
Civil Twilight 7:17 AM EST 6:41 PM EST
Nautical Twilight 6:45 AM EST 7:13 PM EST
Astronomical Twilight 6:14 AM EST 7:44 PM EST
Moon 6:14 AM EST (2/8) 4:45 PM EST (2/8)
Length of Visible Light 11h 23m
Length of Day
10h 26m
Waning Crescent, 3% of the Moon is Illuminated
Feb 8
Waning Crescent
Feb 10
New
Feb 17
First Quarter
Feb 25
Full
Mar 4
Last Quarter

Hourly Weather History & Observations

Time (EST) Temp. Windchill Dew Point Humidity Pressure Visibility Wind Dir Wind Speed Gust Speed Precip Events Conditions
12:15 AM 38.8 °F 32.6 °F 35.6 °F 88% 29.83 in 4.0 mi WNW 9.2 mph - N/A   Drizzle
12:35 AM 37.8 °F 28.3 °F 34.7 °F 89% 29.84 in 5.0 mi WNW 17.3 mph 24.2 mph N/A   Overcast
12:55 AM 36.7 °F 28.0 °F 33.4 °F 88% 29.85 in 7.0 mi WNW 13.8 mph 18.4 mph N/A   Overcast
1:15 AM 35.8 °F 27.3 °F 32.5 °F 88% 29.86 in 5.0 mi WNW 12.7 mph 25.3 mph N/A   Overcast
1:35 AM 35.4 °F 26.0 °F 32.0 °F 87% 29.86 in 4.0 mi WNW 15.0 mph 21.9 mph N/A   Overcast
1:55 AM 34.7 °F 25.1 °F 31.8 °F 89% 29.87 in 5.0 mi WNW 15.0 mph 24.2 mph N/A   Overcast
2:15 AM 34.3 °F 26.5 °F 31.6 °F 90% 29.88 in 5.0 mi WNW 10.4 mph - N/A   Overcast
2:35 AM 34.2 °F 25.2 °F 31.6 °F 90% 29.89 in 4.0 mi WNW 12.7 mph 19.6 mph N/A   Overcast
2:55 AM 34.0 °F 25.0 °F 31.5 °F 90% 29.89 in 3.0 mi WNW 12.7 mph 23.0 mph N/A   Overcast
3:15 AM 33.8 °F 25.3 °F 31.1 °F 90% 29.89 in 3.0 mi NW 11.5 mph 20.7 mph N/A   Overcast
3:35 AM 33.8 °F 24.8 °F 31.1 °F 90% 29.90 in 5.0 mi NW 12.7 mph 24.2 mph N/A   Overcast
3:55 AM 33.4 °F 24.3 °F 30.6 °F 89% 29.91 in 7.0 mi NW 12.7 mph 25.3 mph N/A   Overcast
4:35 AM 33.3 °F 23.7 °F 29.8 °F 87% 29.93 in 10.0 mi NW 13.8 mph 20.7 mph N/A   Overcast
4:55 AM 33.3 °F 23.2 °F 29.7 °F 87% 29.94 in 10.0 mi NW 15.0 mph 20.7 mph N/A   Overcast
5:15 AM 33.4 °F 23.5 °F 29.3 °F 85% 29.95 in 10.0 mi NW 15.0 mph 20.7 mph N/A   Overcast
5:35 AM 33.4 °F 25.9 °F 29.1 °F 84% 29.96 in 10.0 mi NW 9.2 mph 19.6 mph N/A   Overcast
5:55 AM 33.1 °F 23.9 °F 28.6 °F 84% 29.97 in 10.0 mi NW 12.7 mph 18.4 mph N/A   Overcast
6:15 AM 32.9 °F 23.7 °F 28.4 °F 84% 29.98 in 10.0 mi NW 12.7 mph 20.7 mph N/A   Overcast
6:35 AM 32.9 °F 22.4 °F 28.4 °F 84% 29.98 in 10.0 mi NW 16.1 mph 24.2 mph N/A   Overcast
6:55 AM 32.5 °F 22.3 °F 28.2 °F 84% 29.99 in 10.0 mi NW 15.0 mph 20.7 mph N/A   Overcast
7:15 AM 32.2 °F 21.4 °F 28.2 °F 85% 30.01 in 10.0 mi NW 16.1 mph 26.5 mph N/A   Overcast
7:35 AM 32.2 °F 22.3 °F 28.4 °F 86% 30.03 in 10.0 mi NW 13.8 mph 23.0 mph N/A   Overcast
7:55 AM 32.0 °F 21.6 °F 27.5 °F 83% 30.03 in 10.0 mi NW 15.0 mph 21.9 mph N/A   Overcast
8:15 AM 32.2 °F 23.2 °F 27.5 °F 83% 30.05 in 10.0 mi NW 11.5 mph 18.4 mph N/A   Overcast
8:35 AM 32.0 °F 21.2 °F 27.5 °F 83% 30.06 in 10.0 mi NW 16.1 mph 21.9 mph N/A   Overcast
8:55 AM 32.0 °F 22.1 °F 27.0 °F 82% 30.08 in 10.0 mi NW 13.8 mph 19.6 mph N/A   Overcast
9:15 AM 32.0 °F 21.6 °F 26.6 °F 80% 30.09 in 10.0 mi NW 15.0 mph 23.0 mph N/A   Overcast
9:35 AM 32.0 °F 20.5 °F 26.6 °F 80% 30.10 in 10.0 mi NW 18.4 mph 23.0 mph N/A   Overcast
9:55 AM 32.0 °F 24.2 °F 26.6 °F 80% 30.11 in 10.0 mi NW 9.2 mph - N/A   Overcast
10:15 AM 32.0 °F 21.6 °F 26.6 °F 80% 30.13 in 10.0 mi NW 15.0 mph 21.9 mph N/A   Overcast
10:35 AM 32.0 °F 22.1 °F 26.6 °F 80% 30.14 in 10.0 mi NW 13.8 mph 20.7 mph N/A   Overcast
10:55 AM 32.0 °F 22.1 °F 27.0 °F 82% 30.14 in 10.0 mi NW 13.8 mph - N/A   Overcast
11:15 AM 32.0 °F 23.0 °F 27.3 °F 83% 30.15 in 10.0 mi NW 11.5 mph 19.6 mph N/A   Overcast
11:35 AM 32.0 °F 21.6 °F 27.3 °F 83% 30.16 in 10.0 mi NW 15.0 mph 19.6 mph N/A   Overcast
11:55 AM 32.0 °F 22.5 °F 27.1 °F 82% 30.17 in 10.0 mi NW 12.7 mph 18.4 mph N/A   Overcast
12:15 PM 32.0 °F 22.1 °F 27.1 °F 82% 30.18 in 10.0 mi NW 13.8 mph 20.7 mph N/A   Overcast
12:35 PM 32.0 °F 22.5 °F 27.1 °F 82% 30.17 in 10.0 mi NW 12.7 mph 17.3 mph N/A   Overcast
12:55 PM 32.0 °F 23.0 °F 27.3 °F 83% 30.17 in 10.0 mi NW 11.5 mph - N/A   Overcast
1:15 PM 32.9 °F 24.7 °F 28.0 °F 82% 30.17 in 10.0 mi NW 10.4 mph 19.6 mph N/A   Overcast
1:35 PM 33.3 °F 24.6 °F 27.7 °F 80% 30.17 in 10.0 mi NW 11.5 mph 16.1 mph N/A   Overcast
1:55 PM 32.9 °F 24.7 °F 27.9 °F 82% 30.18 in 10.0 mi NW 10.4 mph - N/A   Overcast
2:15 PM 33.3 °F 24.6 °F 27.7 °F 80% 30.18 in 10.0 mi NW 11.5 mph 19.6 mph N/A   Overcast
2:35 PM 33.6 °F 24.6 °F 27.3 °F 78% 30.19 in 10.0 mi NNW 12.7 mph - N/A   Overcast
2:55 PM 33.8 °F 24.8 °F 27.3 °F 77% 30.19 in 10.0 mi NW 12.7 mph 17.3 mph N/A   Overcast
3:15 PM 34.2 °F 25.7 °F 27.5 °F 77% 30.20 in 10.0 mi NNW 11.5 mph - N/A   Overcast
3:35 PM 34.7 °F 24.7 °F 26.2 °F 71% 30.21 in 10.0 mi NNW 16.1 mph 19.6 mph N/A   Overcast
3:55 PM 34.7 °F 26.4 °F 26.2 °F 71% 30.22 in 10.0 mi North 11.5 mph 19.6 mph N/A   Overcast
4:15 PM 34.7 °F 25.5 °F 25.3 °F 69% 30.22 in 10.0 mi NNW 13.8 mph 19.6 mph N/A   Overcast
4:35 PM 34.7 °F 25.9 °F 25.7 °F 70% 30.23 in 10.0 mi NNW 12.7 mph - N/A   Overcast
4:55 PM 34.3 °F 25.9 °F 25.2 °F 69% 30.23 in 10.0 mi NNW 11.5 mph - N/A   Overcast
5:15 PM 34.3 °F 25.0 °F 24.8 °F 68% 30.24 in 10.0 mi NNW 13.8 mph 18.4 mph N/A   Overcast
5:35 PM 34.0 °F 26.0 °F 25.3 °F 71% 30.25 in 10.0 mi NNW 10.4 mph - N/A   Overcast
5:55 PM 33.8 °F 25.8 °F 24.6 °F 69% 30.26 in 10.0 mi NNW 10.4 mph 17.3 mph N/A   Overcast
6:15 PM 32.9 °F 24.7 °F 26.4 °F 77% 30.27 in 10.0 mi NW 10.4 mph - N/A   Overcast
6:35 PM 32.2 °F 25.0 °F 26.4 °F 79% 30.28 in 10.0 mi NW 8.1 mph - N/A   Mostly Cloudy
6:55 PM 32.0 °F 24.2 °F 26.4 °F 80% 30.29 in 10.0 mi NNW 9.2 mph - N/A   Scattered Clouds
7:15 PM 31.8 °F 23.3 °F 26.2 °F 80% 30.31 in 10.0 mi NNW 10.4 mph - N/A   Mostly Cloudy
7:35 PM 31.6 °F 24.4 °F 23.7 °F 73% 30.31 in 10.0 mi NNW 8.1 mph - N/A   Scattered Clouds
7:55 PM 31.1 °F 24.5 °F 25.5 °F 80% 30.31 in 10.0 mi NNW 6.9 mph - N/A   Scattered Clouds
8:15 PM 31.1 °F 25.4 °F 25.7 °F 80% 30.31 in 10.0 mi NNW 5.8 mph - N/A   Mostly Cloudy
8:35 PM 31.5 °F 22.9 °F 25.5 °F 79% 30.32 in 10.0 mi NNW 10.4 mph - N/A   Overcast
8:55 PM 31.6 °F 24.4 °F 25.3 °F 78% 30.33 in 10.0 mi NNW 8.1 mph - N/A   Overcast
9:15 PM 31.8 °F 28.5 °F 25.3 °F 77% 30.33 in 10.0 mi North 3.5 mph - N/A   Overcast
9:35 PM 31.8 °F 25.4 °F 25.2 °F 76% 30.33 in 10.0 mi NNW 6.9 mph - N/A   Overcast
9:55 PM 31.6 °F 24.4 °F 25.2 °F 77% 30.33 in 10.0 mi North 8.1 mph - N/A   Overcast
10:15 PM 31.5 °F 25.8 °F 25.3 °F 78% 30.33 in 10.0 mi NNW 5.8 mph - N/A   Overcast
10:35 PM 31.5 °F 24.2 °F 25.7 °F 79% 30.33 in 10.0 mi North 8.1 mph - N/A   Overcast
10:55 PM 31.5 °F 24.2 °F 24.4 °F 75% 30.33 in 10.0 mi North 8.1 mph - N/A   Overcast
11:15 PM 31.6 °F 26.0 °F 23.5 °F 72% 30.34 in 10.0 mi North 5.8 mph - N/A   Overcast
11:35 PM 31.5 °F 25.8 °F 23.4 °F 72% 30.34 in 10.0 mi North 5.8 mph - N/A   Overcast
11:55 PM 31.5 °F 24.9 °F 23.0 °F 71% 30.35 in 10.0 mi North 6.9 mph - N/A   Overcast